Location: Drocourt
(49.0571°N, 1.7669°E)
Time: 22:46:02
(UTC+00:00)

SR - Pass Details

Date: 16 April 2024
Orbit: 579 x 859 km, 66.7° (Epoch: 24 May)

Event Time Altitude Azimuth Distance (km) Brightness Sun altitude
Rises 01:33:16 0° 174° (S) 3,370 - -26.7°
Reaches altitude 10° 01:36:15 10° 160° (SSE) 2,407 - -26.5°
Exits shadow 01:39:25 21° 126° (SE) 1,714 ? -26.2°
Maximum altitude 01:40:27 23° 110° (ESE) 1,649 ? -26.1°
Drops below altitude 10° 01:44:28 10° 60° (ENE) 2,291 ? -25.8°
Sets 01:47:12 0° 46° (NE) 3,168 ? -25.6°
